Location: Silverdale
(47.6506°N, 122.6941°W)
Time: 05:33:31
(UTC+00:00)

Altair - Pass Details

Date: 06 October 2022
Orbit: 1501 x 1682 km, 47.2° (Epoch: 04 December)

Event Time Altitude Azimuth Distance (km) Brightness Sun altitude
Rises 13:08:57 0° 242° (WSW) 4,754 - -12.3°
Exits shadow 13:11:57 10° 240° (WSW) 3,802 9.0 -11.8°
Reaches altitude 10° 13:11:59 10° 240° (WSW) 3,795 9.0 -11.8°
Maximum altitude 13:21:38 73° 159° (SSE) 1,700 7.8 -10.1°
Drops below altitude 10° 13:31:39 10° 77° (ENE) 3,929 11.2 -8.5°
Sets 13:34:51 0° 76° (ENE) 4,929 12.1 -7.9°
